[[{"header":{"parameterUnit":"m.s-1","parameterCategory":1,"la1":30.2991,"la2":30.254,"lo1":-89.0895,"lo2":-89.0444,"dy":0.0017,"dx":0.0017,"nx":28,"ny":28,"refTime":"2024-08-06T09:00:00:Z","depth":0,"parameterNumber":2,"parameterNumberName":"U-component_of_WINDS"},"data":[0,0,0,0,0,0,0,0,0,0,0,0,0,0,0,0,0,0,0,0,0,0,0,0,0,0,0,0,0,0,0,0,0,0,0,0,0,0,0,0,0,0,0,0,0,0,0,0,0,0,0,0,0,0,0,0,0,0,0.8084,0.8084,0,0.8099,0.8099,0.8099,0.804,0.8038,0.8036,0.8035,0.8053,0.8055,0.8057,0,0,0,0,0,0,0,0,0,0,0,0,0,0.8008,0.801,0.8084,0.8084,0.8085,0.8099,0.8099,0.8099,0.804,0.8038,0.8036,0.8034,0.8053,0.8055,0.8058,0,0,0,0,0,0,0,0,0,0,0,0,0,0.8034,0.8011,0.8084,0.8057,0.8054,0.8099,0.8099,0.8099,0.8041,0.8038,0.8035,0.8033,0.8052,0.8055,0.8058,0.8131,0,0,0.8068,0.8069,0,0,0,0,0,0,0,0,0.8033,0.8037,0.8061,0.8059,0.8056,0.8065,0.8079,0.811,0.8041,0.8046,0.8034,0.8031,0.8059,0.8062,0.8071,0.8132,0.8133,0.8068,0.807,0.8071,0.8072,0,0,0,0,0,0,0,0.8031,0.8036,0.809,0.8061,0.8058,0.8045,0.8045,0.8085,0.8068,0.8045,0.8041,0.8043,0.8058,0.8068,0.8071,0.8133,0.8068,0.8071,0.8073,0.8074,0.8256,0.8259,0,0,0,0,0,0,0.8032,0.8035,0.809,0.8091,0.8038,0.8048,0.8049,0.8065,0.8067,0.8065,0.8046,0.804,0.8063,0.8067,0.8071,0.8158,0.8071,0.8074,0.8076,0.8254,0.8257,0.826,0,0,0,0,0,0,0.8031,0.8038,0.8089,0.8062,0.8067,0.8052,0.807,0.8066,0.8076,0.8067,0.8064,0.8059,0.8061,0.8066,0.8117,0.8158,0.8076,0.8079,0.825,0.8255,0.8259,0.8333,0,0,0,0,0,0,0.8029,0.8038,0.8065,0.8063,0.8069,0.8134,0.8073,0.8069,0.8081,0.8075,0.8079,0.8077,0.806,0.8112,0.812,0.8161,0.8081,0.8246,0.8252,0.8257,0.8327,0.8339,0.835,0,0,0,0,0,0.8027,0.8085,0.8066,0.8073,0.8102,0.8136,0.814,0.8118,0.8085,0.8113,0.8107,0.8077,0.8152,0.8118,0.8126,0.8169,0.8244,0.8251,0.8257,0.8322,0.8337,0.835,0,0,0,0,0,0,0.8094,0.8085,0.8063,0.8123,0.8131,0.8126,0.8161,0.8135,0.8153,0.8147,0.812,0.8121,0.8177,0.8177,0.814,0.824,0.8192,0.8201,0.8239,0.8253,0.8264,0.8265,0.8084,0,0,0,0,0,0.8116,0.8143,0.8134,0.8187,0.8192,0.8176,0.819,0.8172,0.818,0.8183,0.8181,0.8191,0.8216,0.8234,0.8257,0.8325,0.8327,0.8359,0.837,0.838,0.8389,0.8427,0.8442,0.8282,0.8282,0.8282,0,0,0.8161,0.8159,0.8179,0.8201,0.8205,0.8236,0.8179,0.8214,0.8237,0.8189,0.8237,0.8235,0.8244,0.8304,0.833,0.8306,0.8433,0.8388,0.8396,0.84,0.8435,0.8451,0.8464,0.8286,0.8285,0.8285,0,0,0.8261,0.8261,0.8306,0.8311,0.8317,0.8306,0.8317,0.8316,0.8313,0.8359,0.8325,0.8352,0.8396,0.8405,0.8415,0.8516,0.849,0.8524,0.8586,0.8624,0.8637,0.8648,0.8687,0.8701,0.8532,0.8532,0.8533,0,0.8317,0.8361,0.8333,0.837,0.8382,0.8338,0.8385,0.8391,0.8406,0.8415,0.8387,0.8443,0.8445,0.8508,0.8533,0.8541,0.8555,0.8525,0.8637,0.8648,0.8658,0.8695,0.8709,0.8537,0.8536,0.8536,0.8535,0,0.8431,0.8462,0.8498,0.8512,0.8527,0.8569,0.8549,0.8568,0.8549,0.8541,0.859,0.8591,0.8614,0.8627,0.8609,0.8688,0.8673,0.8641,0.8593,0.8678,0.8712,0.8726,0.8543,0.8541,0.854,0.8539,0,0,0.8576,0.8573,0.8587,0.8593,0.8596,0.862,0.866,0.8682,0.87,0.871,0.8745,0.8783,0.8754,0.8766,0.8748,0.878,0.8864,0.8745,0.8745,0.877,0.8953,0.898,0.8996,0.8845,0.8847,0.8849,0.8954,0,0.8676,0.8744,0.872,0.879,0.8819,0.8777,0.8812,0.8819,0.8812,0.8837,0.8829,0.8858,0.8816,0.8823,0.8853,0.8847,0.8901,0.8839,0.888,0.8881,0.8882,0.9014,0.9042,0.914,0.8967,0.8969,0.897,0,0.8802,0.8817,0.889,0.8888,0.8899,0.8932,0.895,0.8973,0.898,0.8973,0.8985,0.896,0.9001,0.895,0.9007,0.8966,0.898,0.898,0.8983,0.8989,0.8934,0.9026,0.9171,0.9187,0.8991,0.8989,0.8988,0,0.8904,0.8942,0.8991,0.8997,0.8996,0.902,0.9021,0.9024,0.9039,0.9055,0.9065,0.9086,0.9098,0.9115,0.9097,0.9061,0.9158,0.9105,0.9156,0.9157,0.9181,0.9181,0.9334,0.9185,0.9185,0.9185,0.9184,0,0.902,0.9067,0.9037,0.9068,0.9119,0.9091,0.9144,0.914,0.9143,0.9174,0.9138,0.9167,0.914,0.9167,0.9153,0.9204,0.9209,0.9206,0.9203,0.9211,0.9212,0.9223,0.9218,0.9188,0.9188,0.9187,0.9186,0,0.9145,0.9126,0.9177,0.9171,0.9171,0.921,0.9205,0.9234,0.9223,0.9262,0.927,0.9254,0.9284,0.9267,0.9298,0.9288,0.9356,0.9341,0.9354,0.9351,0.9404,0.9401,0.9572,0.9595,0.9429,0.943,0.9432,0,0.9222,0.9257,0.9254,0.9271,0.9274,0.9302,0.9317,0.929,0.9307,0.9317,0.9345,0.9372,0.9392,0.9443,0.9435,0.9459,0.9447,0.9505,0.9451,0.9459,0.9452,0.9451,0.9456,0.9518,0.952,0.9521,0.9522,0,0.9362,0.9351,0.9372,0.9391,0.9409,0.9423,0.9434,0.945,0.9423,0.9444,0.9474,0.949,0.9521,0.9549,0.9569,0.9571,0.9544,0.9539,0.9553,0.9564,0.9571,0.9571,0.9388,0.9536,0.9535,0.9534,0.9533,0.9533,0.9468,0.9497,0.95,0.9526,0.9531,0.9542,0.9569,0.9561,0.9585,0.9608,0.959,0.9627,0.9633,0.9657,0.9663,0.9692,0.9668,0.9687,0.9693,0.9699,0.9708,0.9563,0.9695,0.9694,0.9694,0.9693,0.9693,0,0.9609,0.9608,0.9631,0.9647,0.9668,0.9636,0.9647,0.9667,0.9699,0.9706,0.9726,0.9761,0.9788,0.9782,0.9807,0.9831,0.9819,0.9839,0.9839,0.984,0.9725,0.9713,0.9848,0.9848,0.9848,0.9848,0.9848,0.9848,0.9685,0.9734,0.9723,0.9775,0.9774,0.9808,0.9817,0.9828,0.9833,0.9874,0.9895,0.989,0.9893,0.9917,0.9941,0.9938,0.9951,0.9976,0.997,0.9863,0.9848,0.9834,0.9822,0.9978,0.9978,1.0082,1.0083,1.0084]},{"header":{"parameterUnit":"m.s-1","parameterCategory":1,"la1":30.2991,"la2":30.254,"lo1":-89.0895,"lo2":-89.0444,"dy":0.0017,"dx":0.0017,"nx":28,"ny":28,"refTime":"2024-08-06T09:00:00:Z","depth":0,"parameterNumber":3,"parameterNumberName":"V-component_of_WINDS"},"data":[0,0,0,0,0,0,0,0,0,0,0,0,0,0,0,0,0,0,0,0,0,0,0,0,0,0,0,0,0,0,0,0,0,0,0,0,0,0,0,0,0,0,0,0,0,0,0,0,0,0,0,0,0,0,0,0,0,0,-0.7635,-0.7637,0,-0.776,-0.7761,-0.7763,-0.784,-0.784,-0.7841,-0.7841,-0.7969,-0.7972,-0.7975,0,0,0,0,0,0,0,0,0,0,0,0,0,-0.7465,-0.7468,-0.7635,-0.7637,-0.7638,-0.776,-0.7761,-0.7763,-0.784,-0.784,-0.7841,-0.7841,-0.7968,-0.7972,-0.7975,0,0,0,0,0,0,0,0,0,0,0,0,0,-0.7559,-0.7468,-0.7635,-0.7691,-0.7698,-0.7759,-0.7761,-0.7764,-0.784,-0.784,-0.7841,-0.7842,-0.7967,-0.7971,-0.7976,-0.7992,0,0,-0.799,-0.7992,0,0,0,0,0,0,0,0,-0.7554,-0.7565,-0.7681,-0.7688,-0.7695,-0.7785,-0.7748,-0.784,-0.784,-0.7786,-0.7841,-0.7842,-0.7907,-0.7917,-0.7939,-0.7998,-0.8003,-0.799,-0.7993,-0.7995,-0.7996,0,0,0,0,0,0,0,-0.7547,-0.756,-0.7685,-0.7683,-0.7691,-0.7711,-0.7725,-0.7766,-0.7842,-0.779,-0.7796,-0.781,-0.7911,-0.7934,-0.7942,-0.8005,-0.799,-0.7994,-0.7997,-0.7999,-0.8084,-0.8083,0,0,0,0,0,0,-0.7531,-0.7554,-0.7681,-0.7688,-0.7624,-0.7713,-0.7729,-0.7755,-0.7841,-0.7855,-0.7809,-0.7813,-0.7926,-0.7937,-0.7947,-0.7971,-0.7995,-0.7999,-0.8002,-0.8084,-0.8083,-0.8083,0,0,0,0,0,0,-0.7527,-0.7542,-0.7676,-0.7623,-0.7642,-0.7715,-0.7745,-0.7758,-0.7781,-0.7856,-0.787,-0.7819,-0.7927,-0.7941,-0.798,-0.7977,-0.8001,-0.8005,-0.8085,-0.8084,-0.8083,-0.802,0,0,0,0,0,0,-0.7522,-0.754,-0.7546,-0.7623,-0.7644,-0.7706,-0.7744,-0.7759,-0.7788,-0.7794,-0.7868,-0.7881,-0.7929,-0.7973,-0.7985,-0.7984,-0.8009,-0.8085,-0.8084,-0.8083,-0.8022,-0.8017,-0.8012,0,0,0,0,0,-0.7516,-0.7523,-0.7546,-0.7561,-0.7653,-0.7705,-0.7718,-0.7772,-0.7788,-0.7795,-0.7843,-0.7879,-0.7976,-0.7976,-0.799,-0.799,-0.8086,-0.8085,-0.8084,-0.8024,-0.8018,-0.8012,0,0,0,0,0,0,-0.7445,-0.7534,-0.7561,-0.7593,-0.7641,-0.7718,-0.7729,-0.7763,-0.7807,-0.7811,-0.7877,-0.7893,-0.7926,-0.7963,-0.7961,-0.8011,-0.8035,-0.8036,-0.7985,-0.7979,-0.7974,-0.7964,-0.8013,0,0,0,0,0,-0.7433,-0.7467,-0.7544,-0.7565,-0.7588,-0.7654,-0.7679,-0.7716,-0.7769,-0.7789,-0.7841,-0.789,-0.7932,-0.7958,-0.8001,-0.8028,-0.8046,-0.8036,-0.803,-0.8026,-0.8026,-0.8044,-0.8041,-0.808,-0.808,-0.808,0,0,-0.7408,-0.7462,-0.7479,-0.7552,-0.7594,-0.7628,-0.7671,-0.7705,-0.7731,-0.7795,-0.7835,-0.7874,-0.7934,-0.7968,-0.7985,-0.7999,-0.802,-0.8025,-0.802,-0.8023,-0.8043,-0.8039,-0.8035,-0.8079,-0.8079,-0.8079,0,0,-0.7381,-0.7425,-0.7448,-0.7489,-0.7551,-0.7596,-0.7601,-0.7673,-0.7702,-0.7743,-0.7792,-0.7824,-0.7895,-0.7935,-0.7965,-0.7955,-0.799,-0.7967,-0.794,-0.7957,-0.7954,-0.7951,-0.7947,-0.7945,-0.7968,-0.7967,-0.7967,0,-0.7343,-0.7397,-0.7455,-0.7487,-0.7518,-0.7577,-0.7601,-0.7638,-0.7711,-0.7731,-0.7746,-0.7836,-0.788,-0.7924,-0.7922,-0.7944,-0.7953,-0.7958,-0.7949,-0.7948,-0.7946,-0.7943,-0.7942,-0.7964,-0.7965,-0.7965,-0.7965,0,-0.7346,-0.7383,-0.7394,-0.7463,-0.7495,-0.7522,-0.7585,-0.7611,-0.7647,-0.7689,-0.7731,-0.7787,-0.7842,-0.7855,-0.789,-0.7904,-0.7911,-0.7937,-0.7962,-0.7938,-0.7937,-0.7936,-0.796,-0.7961,-0.7962,-0.7963,0,0,-0.7276,-0.7378,-0.7381,-0.7414,-0.7488,-0.7517,-0.7548,-0.7602,-0.7622,-0.7671,-0.7699,-0.7757,-0.7782,-0.7816,-0.7856,-0.7871,-0.7859,-0.7895,-0.7897,-0.7886,-0.7878,-0.7858,-0.7855,-0.7883,-0.7883,-0.7883,-0.7873,0,-0.726,-0.7317,-0.7371,-0.7409,-0.7444,-0.7502,-0.7529,-0.7577,-0.7618,-0.7654,-0.77,-0.774,-0.777,-0.7791,-0.7808,-0.7856,-0.7858,-0.7858,-0.7909,-0.791,-0.7891,-0.7855,-0.7833,-0.7821,-0.7873,-0.7873,-0.7873,0,-0.7248,-0.7294,-0.7335,-0.7407,-0.7423,-0.7446,-0.75,-0.7534,-0.759,-0.7619,-0.7658,-0.77,-0.7736,-0.7758,-0.7809,-0.7807,-0.7832,-0.7859,-0.786,-0.7866,-0.7889,-0.7859,-0.7818,-0.7816,-0.7872,-0.7872,-0.7873,0,-0.7192,-0.7265,-0.7299,-0.7325,-0.7409,-0.7424,-0.746,-0.7517,-0.7546,-0.7594,-0.7614,-0.7665,-0.7692,-0.7731,-0.7787,-0.7798,-0.7831,-0.7858,-0.7856,-0.7855,-0.7859,-0.7858,-0.7821,-0.7876,-0.7876,-0.7876,-0.7876,0,-0.7167,-0.719,-0.7275,-0.7296,-0.7324,-0.7386,-0.7412,-0.7453,-0.7504,-0.7534,-0.7588,-0.7615,-0.7687,-0.7723,-0.7767,-0.7802,-0.7815,-0.7839,-0.785,-0.7834,-0.783,-0.785,-0.7852,-0.7876,-0.7876,-0.7876,-0.7876,0,-0.7108,-0.7166,-0.7207,-0.7284,-0.7304,-0.7321,-0.7387,-0.741,-0.7455,-0.7492,-0.7505,-0.7575,-0.762,-0.768,-0.7744,-0.7774,-0.7803,-0.7821,-0.7784,-0.779,-0.7785,-0.7784,-0.7758,-0.7758,-0.7813,-0.7812,-0.7812,0,-0.7088,-0.7107,-0.7186,-0.721,-0.7244,-0.7282,-0.7312,-0.7375,-0.7405,-0.7471,-0.7486,-0.7536,-0.7578,-0.7649,-0.7706,-0.7755,-0.7774,-0.7762,-0.7782,-0.7765,-0.7774,-0.7771,-0.7773,-0.7756,-0.7755,-0.7755,-0.7754,0,-0.7045,-0.7073,-0.7115,-0.7166,-0.7201,-0.7244,-0.7291,-0.7307,-0.738,-0.741,-0.7458,-0.7491,-0.7557,-0.7605,-0.7663,-0.7701,-0.7739,-0.7748,-0.775,-0.7732,-0.7709,-0.7721,-0.7769,-0.7747,-0.7748,-0.7749,-0.7749,-0.7749,-0.7005,-0.7025,-0.7083,-0.7128,-0.7169,-0.7211,-0.7237,-0.7285,-0.7325,-0.7383,-0.7419,-0.7464,-0.7522,-0.7603,-0.7639,-0.7676,-0.7691,-0.7694,-0.7695,-0.7694,-0.7688,-0.7704,-0.7687,-0.7687,-0.7687,-0.7688,-0.7688,0,-0.6965,-0.7005,-0.7046,-0.7109,-0.7144,-0.7178,-0.7231,-0.7258,-0.7298,-0.7348,-0.7389,-0.7444,-0.7492,-0.7553,-0.7605,-0.7623,-0.7642,-0.7635,-0.7633,-0.7641,-0.7672,-0.7665,-0.7618,-0.7618,-0.7618,-0.7618,-0.7618,-0.7618,-0.6947,-0.6983,-0.7018,-0.7074,-0.7116,-0.7161,-0.7188,-0.7227,-0.7268,-0.7326,-0.7366,-0.7406,-0.7461,-0.7518,-0.7563,-0.758,-0.7597,-0.7583,-0.7605,-0.7633,-0.7639,-0.7645,-0.7638,-0.7587,-0.7587,-0.7571,-0.7571,-0.7571]}]]